Find DODGE

NORAD ID: 2867 Int'l Des: 1967-066 Owner: NAVAIR Country: US operational
MEOCIRCULAR

实时位置

正在加载3D地球...

关于 DODGE

正在加载描述...

即将过境

Passes for default location (London). Set your location on the main map for personalized predictions.

高度历史

Loading altitude history...

两行轨道根数

1 02867U 67066F 26104.22690287 -.00000047 00000-0 00000-0 0 9999
2 02867 2.3476 99.7389 0053627 191.1890 336.4630 1.09167300132686
Epoch: Apr 14, 2026 • Age: 15 hours

当前状态

高度 33632.0 km
速度 3.15 km/s
星下点 1.74°N, 2.55°E
类型 other

Most Searched